EZY870 LGAV-LCPH

Flight info

Callsign EZY870
Flight time N/A
Altitude 33000
Route KEA UL52 ASTIS UM601 EVENO M601 DASNI M32 TOBAL
Aircraft A320/M-SDE3FGHIRWY/LB1

Departure

Time N/A
Airport Athens Eleftherios Venizelos International Airport (LGAV)

Arrival

Time 2026-05-08 10:46
Airport Paphos International Airport (LCPH)
Time Latitude Longitude Altitude Speed Heading
2026-05-08 09:44 37.25386 24.90150 25938 ft 469 kts 127°
2026-05-08 09:44 37.23628 24.93610 26250 ft 472 kts 127°
2026-05-08 09:44 37.21861 24.97084 26569 ft 475 kts 127°
2026-05-08 09:44 37.20074 25.00591 26884 ft 477 kts 127°
2026-05-08 09:45 37.18308 25.04058 27130 ft 482 kts 127°
2026-05-08 09:45 37.16471 25.07663 27413 ft 485 kts 127°
2026-05-08 09:45 37.14669 25.11195 27714 ft 488 kts 127°
2026-05-08 09:45 37.12834 25.14788 28027 ft 491 kts 127°
2026-05-08 09:46 37.10966 25.18444 28339 ft 493 kts 127°
2026-05-08 09:46 37.09138 25.22019 28638 ft 496 kts 127°
2026-05-08 09:46 37.07248 25.25714 28933 ft 498 kts 127°
2026-05-08 09:46 37.05397 25.29328 29193 ft 500 kts 127°
2026-05-08 09:47 37.03488 25.33053 29469 ft 503 kts 127°
2026-05-08 09:47 37.01614 25.36697 29691 ft 506 kts 127°
2026-05-08 09:47 36.99673 25.40458 29941 ft 509 kts 127°
2026-05-08 09:47 36.97748 25.44190 30198 ft 512 kts 127°
2026-05-08 09:48 36.95846 25.47879 30422 ft 514 kts 127°
2026-05-08 09:48 36.93908 25.51636 30614 ft 516 kts 127°
2026-05-08 09:48 36.91959 25.55413 30828 ft 517 kts 127°
2026-05-08 09:48 36.90008 25.59192 31139 ft 517 kts 127°
2026-05-08 09:49 36.88058 25.62964 31457 ft 517 kts 127°
2026-05-08 09:49 36.86111 25.66725 31717 ft 518 kts 127°
2026-05-08 09:49 36.84146 25.70513 31950 ft 519 kts 127°
2026-05-08 09:49 36.82179 25.74298 32229 ft 520 kts 127°
2026-05-08 09:50 36.80209 25.78080 32518 ft 520 kts 127°
2026-05-08 09:50 36.78239 25.81861 32831 ft 520 kts 127°
2026-05-08 09:50 36.76268 25.85644 33068 ft 520 kts 127°
2026-05-08 09:50 36.74301 25.89418 33177 ft 518 kts 127°
2026-05-08 09:51 36.72343 25.93170 33189 ft 515 kts 127°
2026-05-08 09:51 36.68427 26.00644 33191 ft 516 kts 127°
2026-05-08 09:52 36.64495 26.08134 33190 ft 517 kts 127°
2026-05-08 09:52 36.60557 26.15627 33189 ft 517 kts 127°
2026-05-08 09:53 36.57126 26.23498 33191 ft 522 kts 112°
2026-05-08 09:53 36.55504 26.32300 33177 ft 523 kts 97°
2026-05-08 09:54 36.54495 26.41271 33173 ft 524 kts 97°
2026-05-08 09:54 36.53447 26.50247 33175 ft 524 kts 97°
2026-05-08 09:55 36.52390 26.59217 33182 ft 524 kts 97°
2026-05-08 09:55 36.51340 26.68184 33194 ft 524 kts 97°
2026-05-08 09:56 36.50298 26.77140 33204 ft 523 kts 97°
2026-05-08 09:56 36.49228 26.86079 33196 ft 523 kts 97°
2026-05-08 09:57 36.47604 26.99462 33194 ft 522 kts 97°
2026-05-08 09:57 36.46511 27.08376 33195 ft 521 kts 97°
2026-05-08 09:58 36.45435 27.17274 33183 ft 521 kts 97°
2026-05-08 09:58 36.44362 27.26173 33184 ft 520 kts 96°
2026-05-08 09:59 36.43275 27.35055 33194 ft 520 kts 97°
2026-05-08 09:59 36.42358 27.42420 33171 ft 519 kts 97°
2026-05-08 10:00 36.41071 27.52709 33171 ft 519 kts 96°
2026-05-08 10:00 36.40141 27.60122 33170 ft 518 kts 96°
2026-05-08 10:01 36.39031 27.68955 33173 ft 518 kts 96°
2026-05-08 10:01 36.37915 27.77771 33170 ft 517 kts 96°
2026-05-08 10:02 36.36790 27.86569 33162 ft 516 kts 96°
2026-05-08 10:02 36.35657 27.95311 33162 ft 516 kts 97°
2026-05-08 10:03 36.34517 28.04107 33163 ft 517 kts 97°
2026-05-08 10:03 36.32829 28.12786 33166 ft 519 kts 106°
2026-05-08 10:04 36.30649 28.21300 33168 ft 518 kts 106°
2026-05-08 10:04 36.28472 28.29816 33167 ft 518 kts 106°
2026-05-08 10:05 36.26293 28.38313 33166 ft 517 kts 106°
2026-05-08 10:05 36.24106 28.46789 33176 ft 517 kts 106°
2026-05-08 10:06 36.21912 28.55259 33179 ft 516 kts 106°
2026-05-08 10:06 36.19707 28.63716 33166 ft 516 kts 107°
2026-05-08 10:07 36.17496 28.72172 33167 ft 516 kts 106°
2026-05-08 10:07 36.15281 28.80622 33165 ft 516 kts 106°
2026-05-08 10:08 36.13070 28.89074 33163 ft 516 kts 106°
2026-05-08 10:08 36.10848 28.97517 33162 ft 516 kts 106°
2026-05-08 10:09 36.08612 29.05945 33160 ft 516 kts 106°
2026-05-08 10:09 36.06371 29.14380 33159 ft 516 kts 106°
2026-05-08 10:10 36.04126 29.22812 33163 ft 516 kts 106°
2026-05-08 10:10 36.01880 29.31242 33171 ft 517 kts 105°
2026-05-08 10:11 35.99627 29.39668 33170 ft 517 kts 105°
2026-05-08 10:11 35.97360 29.48088 33171 ft 517 kts 106°
2026-05-08 10:12 35.95087 29.56502 33178 ft 517 kts 105°
2026-05-08 10:12 35.92823 29.64914 33175 ft 516 kts 105°
2026-05-08 10:13 35.90568 29.73323 33168 ft 516 kts 105°
2026-05-08 10:13 35.88308 29.81724 33165 ft 516 kts 105°
2026-05-08 10:14 35.86030 29.90119 33166 ft 516 kts 105°
2026-05-08 10:14 35.83743 29.98502 33156 ft 517 kts 105°
2026-05-08 10:15 35.81516 30.06914 33154 ft 516 kts 104°
2026-05-08 10:15 35.79428 30.15369 33159 ft 516 kts 103°
2026-05-08 10:16 35.77343 30.23821 33154 ft 516 kts 103°
2026-05-08 10:16 35.76282 30.28046 32911 ft 516 kts 103°
2026-05-08 10:16 35.75210 30.32262 32661 ft 516 kts 104°
2026-05-08 10:17 35.74133 30.36471 32406 ft 515 kts 104°
2026-05-08 10:17 35.73058 30.40675 32162 ft 514 kts 104°
2026-05-08 10:17 35.71988 30.44864 31547 ft 512 kts 104°
2026-05-08 10:17 35.70932 30.48985 30862 ft 511 kts 104°
2026-05-08 10:18 35.69865 30.53145 30178 ft 509 kts 104°
2026-05-08 10:18 35.68800 30.57285 29447 ft 505 kts 104°
2026-05-08 10:18 35.67748 30.61385 28798 ft 500 kts 104°
2026-05-08 10:18 35.66709 30.65449 28135 ft 496 kts 104°
2026-05-08 10:19 35.65677 30.69473 27491 ft 492 kts 105°
2026-05-08 10:19 35.64646 30.73478 26851 ft 489 kts 105°
2026-05-08 10:19 35.63625 30.77435 26291 ft 483 kts 105°
2026-05-08 10:20 35.61409 30.85156 25125 ft 477 kts 116°
2026-05-08 10:20 35.59736 30.88628 24617 ft 472 kts 123°
2026-05-08 10:20 35.57942 30.91981 24136 ft 466 kts 123°
2026-05-08 10:20 35.56166 30.95295 23544 ft 462 kts 123°
2026-05-08 10:21 35.54413 30.98565 23106 ft 454 kts 123°
2026-05-08 10:21 35.52688 31.01783 22551 ft 449 kts 123°
2026-05-08 10:21 35.50977 31.04975 22037 ft 444 kts 123°
2026-05-08 10:21 35.49291 31.08127 21554 ft 438 kts 123°
2026-05-08 10:22 35.47623 31.11229 21061 ft 433 kts 123°
2026-05-08 10:22 35.45971 31.14295 20576 ft 429 kts 123°
2026-05-08 10:22 35.44338 31.17334 20069 ft 425 kts 123°
2026-05-08 10:22 35.42717 31.20346 19572 ft 421 kts 123°
2026-05-08 10:23 35.41108 31.23336 19066 ft 419 kts 123°
2026-05-08 10:23 35.39522 31.26280 18572 ft 416 kts 122°
2026-05-08 10:23 35.37931 31.29226 18050 ft 413 kts 122°
2026-05-08 10:23 35.36348 31.32152 17522 ft 410 kts 122°
2026-05-08 10:24 35.34781 31.35046 17058 ft 406 kts 122°
2026-05-08 10:24 35.33227 31.37916 16604 ft 402 kts 122°
2026-05-08 10:24 35.31683 31.40761 16109 ft 399 kts 122°
2026-05-08 10:24 35.30150 31.43582 15602 ft 397 kts 122°
2026-05-08 10:25 35.28631 31.46379 15142 ft 394 kts 122°
2026-05-08 10:25 35.27124 31.49158 14783 ft 389 kts 122°
2026-05-08 10:25 35.25635 31.51902 14323 ft 386 kts 122°
2026-05-08 10:25 35.24156 31.54623 13889 ft 383 kts 122°
2026-05-08 10:26 35.22687 31.57321 13315 ft 377 kts 122°
2026-05-08 10:26 35.21247 31.59958 12591 ft 367 kts 122°
2026-05-08 10:26 35.19859 31.62492 12133 ft 351 kts 122°
2026-05-08 10:26 35.18530 31.64924 11673 ft 337 kts 122°
2026-05-08 10:27 35.17253 31.67266 11219 ft 325 kts 121°
2026-05-08 10:27 35.15998 31.69566 10751 ft 327 kts 121°
2026-05-08 10:27 35.14722 31.71905 10221 ft 330 kts 121°
2026-05-08 10:27 35.13478 31.74182 10062 ft 314 kts 121°
2026-05-08 10:28 35.12291 31.76349 9838 ft 302 kts 121°
2026-05-08 10:28 35.11127 31.78473 9704 ft 300 kts 121°
2026-05-08 10:28 35.09966 31.80594 9530 ft 301 kts 121°
2026-05-08 10:28 35.08809 31.82709 9188 ft 298 kts 122°
2026-05-08 10:29 35.07662 31.84802 8823 ft 295 kts 122°
2026-05-08 10:29 35.06524 31.86879 8458 ft 293 kts 122°
2026-05-08 10:29 35.05394 31.88939 8100 ft 291 kts 122°
2026-05-08 10:29 35.04271 31.90983 7750 ft 289 kts 122°
2026-05-08 10:30 35.03154 31.93011 7404 ft 287 kts 122°
2026-05-08 10:30 35.02048 31.95021 7054 ft 284 kts 122°
2026-05-08 10:30 35.00952 31.97009 6710 ft 282 kts 122°
2026-05-08 10:30 34.99861 31.98985 6355 ft 280 kts 122°
2026-05-08 10:31 34.98779 32.00945 6002 ft 278 kts 122°
2026-05-08 10:31 34.97705 32.02892 5660 ft 276 kts 122°
2026-05-08 10:31 34.96638 32.04826 5324 ft 274 kts 123°
2026-05-08 10:31 34.95577 32.06746 4988 ft 272 kts 122°
2026-05-08 10:32 34.94526 32.08650 4652 ft 270 kts 122°
2026-05-08 10:32 34.93485 32.10537 4303 ft 267 kts 122°
2026-05-08 10:32 34.92458 32.12374 4055 ft 265 kts 125°
2026-05-08 10:32 34.91383 32.13955 4005 ft 264 kts 127°
2026-05-08 10:33 34.90215 32.15648 4012 ft 265 kts 127°
2026-05-08 10:33 34.89015 32.17389 4011 ft 265 kts 128°
2026-05-08 10:33 34.87832 32.19104 4006 ft 265 kts 128°
2026-05-08 10:33 34.86657 32.20806 4008 ft 265 kts 127°
2026-05-08 10:34 34.85470 32.22526 4010 ft 265 kts 128°
2026-05-08 10:34 34.84283 32.24246 4012 ft 265 kts 128°
2026-05-08 10:34 34.83097 32.25967 4008 ft 265 kts 128°
2026-05-08 10:34 34.81909 32.27689 4010 ft 266 kts 127°
2026-05-08 10:35 34.80721 32.29406 4012 ft 265 kts 128°
2026-05-08 10:35 34.79534 32.31122 4008 ft 265 kts 128°
2026-05-08 10:35 34.78348 32.32840 4010 ft 266 kts 128°
2026-05-08 10:35 34.77157 32.34564 4012 ft 267 kts 128°
2026-05-08 10:36 34.75964 32.36290 4008 ft 267 kts 129°
2026-05-08 10:36 34.74767 32.38020 4011 ft 267 kts 129°
2026-05-08 10:36 34.73572 32.39750 4011 ft 267 kts 129°
2026-05-08 10:36 34.72376 32.41477 4010 ft 267 kts 129°
2026-05-08 10:37 34.71178 32.43203 4009 ft 267 kts 129°
2026-05-08 10:37 34.69979 32.44928 4012 ft 267 kts 129°
2026-05-08 10:37 34.68780 32.46651 4011 ft 267 kts 129°
2026-05-08 10:37 34.67580 32.48374 4010 ft 267 kts 129°
2026-05-08 10:38 34.66383 32.50098 4012 ft 266 kts 129°
2026-05-08 10:38 34.65252 32.51870 4011 ft 265 kts 124°
2026-05-08 10:38 34.64192 32.53695 4009 ft 264 kts 123°
2026-05-08 10:38 34.63145 32.55529 4009 ft 264 kts 123°
2026-05-08 10:39 34.62101 32.57360 3995 ft 264 kts 124°
2026-05-08 10:39 34.61065 32.59191 3633 ft 262 kts 123°
2026-05-08 10:39 34.60040 32.61010 3231 ft 260 kts 123°
2026-05-08 10:39 34.59032 32.62824 3007 ft 259 kts 121°
2026-05-08 10:40 34.58292 32.64804 3003 ft 259 kts 107°
2026-05-08 10:40 34.57746 32.66887 3005 ft 259 kts 105°
2026-05-08 10:40 34.57377 32.68972 3001 ft 244 kts 90°
2026-05-08 10:40 34.57631 32.70913 2998 ft 226 kts 68°
2026-05-08 10:41 34.58428 32.72499 3000 ft 220 kts 47°
2026-05-08 10:41 34.59642 32.73599 2998 ft 219 kts 25°
2026-05-08 10:41 34.61128 32.74056 2999 ft 224 kts
2026-05-08 10:41 34.62644 32.73780 3000 ft 225 kts 339°
2026-05-08 10:42 34.63990 32.72768 3000 ft 226 kts 315°
2026-05-08 10:42 34.64866 32.71216 3007 ft 229 kts 293°
2026-05-08 10:42 34.65420 32.69432 3004 ft 221 kts 290°
2026-05-08 10:42 34.65939 32.67722 2960 ft 212 kts 290°
2026-05-08 10:43 34.66452 32.66044 2750 ft 211 kts 290°
2026-05-08 10:43 34.66956 32.64398 2491 ft 204 kts 290°
2026-05-08 10:43 34.67438 32.62823 2231 ft 195 kts 289°
2026-05-08 10:43 34.67908 32.61288 1986 ft 194 kts 290°
2026-05-08 10:44 34.68378 32.59750 1715 ft 194 kts 289°
2026-05-08 10:44 34.68839 32.58249 1456 ft 185 kts 289°
2026-05-08 10:44 34.69283 32.56793 1129 ft 183 kts 289°
2026-05-08 10:44 34.69716 32.55404 933 ft 170 kts 290°
2026-05-08 10:45 34.70103 32.54105 760 ft 155 kts 288°
2026-05-08 10:45 34.70450 32.52938 672 ft 141 kts 289°
2026-05-08 10:45 34.70800 32.51839 382 ft 137 kts 291°
2026-05-08 10:45 34.71115 32.50799 218 ft 126 kts 290°
2026-05-08 10:46 34.71411 32.49797 98 ft 126 kts 291°
2026-05-08 10:46 34.71684 32.48890 38 ft 73 kts 289°
2026-05-08 10:46 34.71799 32.48523 37 ft 30 kts 291°
2026-05-08 10:46 34.71787 32.48409 38 ft 14 kts 204°
2026-05-08 10:47 34.71685 32.48376 37 ft 15 kts 168°
2026-05-08 10:47 34.71645 32.48473 37 ft 13 kts 110°
2026-05-08 10:47 34.71610 32.48566 37 ft 11 kts 106°
2026-05-08 10:47 34.71590 32.48652 36 ft 10 kts 111°
2026-05-08 10:48 34.71567 32.48728 35 ft 9 kts 109°
2026-05-08 10:48 34.71544 32.48799 36 ft 8 kts 121°
2026-05-08 10:48 34.71496 32.48838 36 ft 10 kts 169°
2026-05-08 10:48 34.71447 32.48834 36 ft 11 kts 186°
2026-05-08 10:49 34.71368 32.48842 35 ft 2 kts 151°
2026-05-08 10:49 34.71367 32.48842 35 ft 0 kts 151°